FW2075 Weather Reports


time (UTC)temp
C
wind
direction
speed
KPH
gust
KPH
rain 1hr
cm
rain 24hr
cm
rain mn
cm
humidity
%
barometer
mb
20260508001505 8 244 1.6 9.7 0.00 2.77 2.77 95 1002.6
20260508000008 8 189 3.2 12.9 0.00 2.77 2.77 94 1002.7
20260507234515 8 165 6.4 19.3 0.00 2.77 2.77 94 1002.7
20260507233004 8 168 0.0 11.3 0.00 2.77 2.77 94 1002.5
20260507231503 8 193 3.2 19.3 0.00 2.77 2.77 94 1002.6
20260507230004 9 139 11.3 19.3 0.00 2.77 2.77 94 1002.6
20260507224506 10 187 9.7 17.7 0.00 2.77 2.77 94 1002.5
20260507223002 10 215 8.0 22.5 0.00 2.77 2.77 94 1002.3
20260507221501 10 164 14.5 25.7 0.03 2.77 2.77 94 1002.3
20260507220100 10 157 14.5 24.1 0.03 2.77 2.77 94 1002.5
20260507214601 10 169 12.9 32.2 0.03 2.77 2.77 94 1002.5
20260507213107 10 141 14.5 27.4 0.05 2.77 2.77 94 1002.3
20260507211558 10 186 19.3 32.2 0.08 2.77 2.77 94 1002.3
20260507210058 9 169 14.5 27.4 0.18 2.77 2.77 94 1001.5
20260507204559 9 136 16.1 24.1 0.30 2.77 2.77 94 1002.4
20260507203100 9 157 14.5 22.5 0.48 2.74 2.74 94 1003.0
20260507201551 8 158 9.7 20.9 0.71 2.69 2.69 94 1003.6
20260507200052 8 146 12.9 22.5 0.91 2.59 2.59 94 1003.7
20260507194547 8 132 12.9 22.5 1.09 2.46 2.46 94 1003.9
20260507193050 8 161 12.9 24.1 1.19 2.26 2.26 93 1004.6
20260507191543 8 197 12.9 30.6 1.24 1.93 1.93 93 1005.4
20260507190039 10 219 12.9 33.8 1.17 1.65 1.65 93 1005.3
20260507184539 11 228 12.9 27.4 0.94 1.37 1.37 93 1005.0
20260507183042 11 160 14.5 29.0 0.69 1.07 1.07 93 1005.0
20260507181536 11 180 11.3 32.2 0.30 0.69 0.69 93 1005.8
20260507180041 11 153 17.7 29.0 0.10 0.48 0.48 93 1004.9
20260507174536 11 136 17.7 37.0 0.05 0.43 0.43 93 1004.6
20260507173034 11 142 19.3 32.2 0.00 0.38 0.38 93 1005.1
20260507171531 11 150 19.3 32.2 0.03 0.38 0.38 93 1005.4
20260507170029 11 160 19.3 33.8 0.08 0.38 0.38 93 1005.4
20260507164528 11 204 12.9 33.8 0.08 0.38 0.38 93 1006.4
20260507163025 11 150 16.1 37.0 0.08 0.38 0.38 93 1006.5
20260507161538 11 151 17.7 32.2 0.08 0.36 0.36 93 1006.9
20260507160029 11 126 16.1 27.4 0.03 0.30 0.30 93 1007.6
20260507154520 11 174 19.3 33.8 0.03 0.30 0.30 93 1007.8
20260507153016 11 159 19.3 33.8 0.03 0.30 0.30 92 1008.4
20260507151614 11 147 19.3 30.6 0.00 0.28 0.28 92 1008.7
20260507150015 11 151 19.3 38.6 0.00 0.28 0.28 92 1008.7
20260507144512 11 166 20.9 32.2 0.00 0.28 0.28 92 1009.0
20260507143011 11 144 20.9 33.8 0.00 0.28 0.28 93 1009.2
20260507141508 11 169 20.9 33.8 0.00 0.28 0.28 93 1009.6
20260507140013 11 168 20.9 35.4 0.00 0.28 0.28 93 1009.9
20260507134520 11 188 20.9 33.8 0.00 0.28 0.28 93 1010.2
20260507133009 11 159 20.9 40.2 0.00 0.28 0.28 93 1010.1
20260507131511 11 145 19.3 40.2 0.00 0.28 0.28 93 1010.4
20260507130003 11 159 19.3 41.8 0.00 0.28 0.28 93 1010.4
20260507124502 11 167 22.5 43.5 0.00 0.28 0.28 94 1010.3
20260507123108 11 169 16.1 33.8 0.00 0.28 0.28 94 1010.8
20260507121608 11 153 17.7 35.4 0.03 0.28 0.28 94 1010.5
20260507120057 11 117 20.9 32.2 0.03 0.28 0.28 94 1010.8
20260507114600 11 139 19.3 30.6 0.05 0.28 0.28 94 1011.2
20260507113054 11 172 16.1 29.0 0.08 0.28 0.28 94 1011.8
20260507111554 11 139 16.1 35.4 0.10 0.25 0.25 94 1011.6
20260507110106 11 193 19.3 30.6 0.10 0.25 0.25 94 1012.0
20260507104552 11 184 19.3 41.8 0.08 0.23 0.23 94 1011.7
20260507103054 11 169 19.3 33.8 0.05 0.20 0.20 94 1012.5
20260507101550 11 161 14.5 27.4 0.03 0.15 0.15 94 1012.3
20260507100049 11 184 14.5 25.7 0.03 0.15 0.15 94 1012.6
20260507094553 11 160 4.8 22.5 0.03 0.15 0.15 94 1012.7
20260507093055 11 163 11.3 27.4 0.03 0.15 0.15 94 1012.5
20260507091607 11 173 16.1 25.7 0.00 0.15 0.15 94 1012.2
20260507090047 11 157 9.7 20.9 0.05 0.15 0.15 94 1012.4
20260507084544 12 153 12.9 35.4 0.05 0.15 0.15 94 1012.8
20260507083040 11 189 16.1 32.2 0.13 0.15 0.15 94 1012.5
20260507081538 11 174 16.1 33.8 0.13 0.15 0.15 94 1012.9
20260507080033 10 161 12.9 22.5 0.08 0.08 0.08 94 1012.8
20260507074541 10 145 17.7 29.0 0.08 0.08 0.08 94 1012.9
20260507073028 10 171 16.1 30.6 0.03 0.03 0.03 94 1013.4
20260507071527 9 197 16.1 29.0 0.03 0.03 0.03 93 1013.5
20260507070026 9 177 17.7 32.2 0.00 0.00 0.00 93 1013.7
20260507064523 9 157 17.7 29.0 0.00 0.00 0.00 93 1014.1
20260507063023 9 159 14.5 32.2 0.00 0.00 0.00 93 1014.3
20260507061519 10 142 14.5 35.4 0.00 0.00 0.00 93 1014.3
20260507060016 10 175 14.5 27.4 0.00 0.00 0.00 93 1014.6
20260507054514 10 159 11.3 20.9 0.00 0.00 0.00 93 1015.0
20260507053011 10 170 9.7 17.7 0.00 0.00 0.00 93 1015.2
20260507051506 10 174 4.8 17.7 0.00 0.00 0.00 93 1015.7
20260507050003 9 194 4.8 14.5 0.00 0.00 0.00 93 1016.1
20260507044501 9 160 8.0 16.1 0.00 0.00 0.00 93 1016.4
20260507043101 9 175 6.4 16.1 0.00 0.00 0.00 93 1016.7
20260507041556 9 168 8.0 12.9 0.00 0.00 0.00 92 1017.0
20260507040053 9 168 8.0 14.5 0.00 0.00 0.00 92 1017.4
20260507034558 9 139 8.0 17.7 0.00 0.00 0.00 92 1017.5
20260507033049 9 165 8.0 17.7 0.00 0.00 0.00 92 1017.7
20260507031546 9 219 6.4 17.7 0.00 0.00 0.00 92 1018.0
20260507030043 9 161 6.4 17.7 0.00 0.00 0.00 92 1018.2
20260507024553 9 174 6.4 14.5 0.00 0.00 0.00 92 1018.4
20260507023041 9 170 9.7 19.3 0.00 0.00 0.00 91 1018.6
20260507021547 10 161 6.4 14.5 0.00 0.00 0.00 91 1018.7
20260507020046 10 202 4.8 19.3 0.00 0.00 0.00 91 1018.9
20260507014543 10 136 8.0 14.5 0.00 0.00 0.00 91 1018.8
20260507013039 10 194 4.8 17.7 0.00 0.00 0.00 91 1018.9
20260507011543 10 200 6.4 14.5 0.00 0.00 0.00 90 1019.0
20260507010047 10 174 4.8 12.9 0.00 0.00 0.00 90 1019.5
20260507004537 10 151 6.4 14.5 0.00 0.00 0.00 90 1019.4
20260507003039 10 161 8.0 17.7 0.00 0.00 0.00 90 1019.2